DECAYED

CZ-6A DEB, 60638 (Decayed)

Orbit data source: Space-Track

CZ-6A DEB, 60638 was space debris in LEO originally from a launch on Tue, 06 Aug 2024 UTC launched from the Taiyaun Space Center, China (TSC). Debris objects in space refer to the collection of defunct objects orbiting the Earth. Examples of debris include non-operational satellites, rocket bodies, and fragments generated from explosions, collisions, or faulty payload assembly.

Not visible in the next 10 days
Identifier
60638, 2024-140AP
Orbit
Decayed
Country
Flag of CNCN / PRC
Related business
Manufacturer
SAST
Mission
Decayed spacecraft
Bus & Motor
Unknown
Mass
Unknown
Launch date (UTC)
2024-08-06 (2 years ago)
Launch vehicle
Unknown
Launch site
Taiyaun Space Center, China (TSC)
Object type
Payload
Rocket body
Debris
Shape & HBR
Unknown shape, 0.2 m
Radar Cross Section
Medium (>0.1 m² and <1 m²)

Expand to show TLE details & history
Last TLE update: 2 months ago

TLE from 2 months ago
0 CZ-6A DEB
1 60638U 24140AP  26109.92250028  .11999080 -11225-5  12536-2 0  9993
2 60638  88.9165 271.3857 0019300 270.4497  89.4600 16.37168999 93931
Epoch: 2026-04-19T22:08Z
TLE epoch observation values (Epoch: 2026-04-19T22:08:24.024Z)
Latitude
-0.00001°
Longitude
91.26557°
Altitude
176.606 km
Speed
7.8 km/s
True Right ascension
18h 05m 32s
True Declination
0° 00' 00"
Sunlit
Object was in full shadow at epoch
Visualization orbit readout
Latitude
Unknown
Longitude
Unknown
Altitude
Unknown
Speed
Unknown
Apparent Right ascension
Unknown
Apparent Declination
Unknown
Sunlit
N/A
Visualization observer readout
Local Sidereal Time
07:22:48
Azimuth
Unknown
Elevation
Unknown
Doppler factor
Unknown
Orbital elements
Apogee altitude
182.63 km
Perigee altitude
157.354 km
Semi-major axis
6,548.129 km
Eccentricity
0.00193
Inclination
88.9165°
RAAN
271.3857°
Arg. of periapsis
270.4497°
True anomaly
89.68116°
Mean anomaly
89.46°
Eccentric anomaly
89.57058°
Mean motion
4.09607 °/min
Orbital period
87.89 mins
BSTAR
0.0012536
Loading maneuver chart data...
Computing Atmospheric mass density...
Loading historical data...
Loading historical data...
Loading historical data...
Loading historical data...
Loading historical data...
Loading historical data...
Loading historical data...

Documentation

Showing up to 5 results
|